RANA Weather Reports


Display with metric or nautical units.
time (UTC)temp
F
wind
direction
speed
MPH
gust
MPH
rain 1hr
in
rain 24hr
in
rain mn
in
humidity
%
barometer
mb
20260903211511 61 275 22.0 22.0 0.00 0.00 0.00 76
20260903211010 61 274 20.0 22.0 0.00 0.00 0.00 76
20260903210510 61 277 20.0 22.0 0.00 0.00 0.00 76
20260903210010 61 275 20.0 22.0 0.00 0.00 0.00 75
20260903205510 63 278 22.0 25.0 0.00 0.00 0.00 74
20260903205011 63 276 22.0 25.0 0.00 0.00 0.00 74
20260903204511 63 277 20.0 22.0 0.00 0.00 0.00 74
20260903204010 63 278 18.0 20.0 0.00 0.00 0.00 74
20260903203510 61 272 20.0 22.0 0.00 0.00 0.00 74
20260903203011 63 273 20.0 25.0 0.00 0.00 0.00 74
20260903202511 63 274 22.0 25.0 0.00 0.00 0.00 74
20260903202018 61 275 22.0 27.0 0.00 0.00 0.00 75
20260903201511 61 272 22.0 27.0 0.00 0.00 0.00 75
20260903201010 61 271 20.0 25.0 0.00 0.00 0.00 75
20260903200511 61 267 22.0 22.0 0.00 0.00 0.00 76
20260903200010 61 268 20.0 22.0 0.00 0.00 0.00 76
20260903195510 61 269 20.0 22.0 0.00 0.00 0.00 76
20260903195011 61 268 22.0 25.0 0.00 0.00 0.00 76
20260903194510 61 267 22.0 25.0 0.00 0.00 0.00 76
20260903194010 61 271 22.0 22.0 0.00 0.00 0.00 76
20260903193510 61 270 22.0 25.0 0.00 0.00 0.00 76
20260903193011 61 269 25.0 27.0 0.00 0.00 0.00 76
20260903192510 61 270 27.0 29.0 0.00 0.00 0.00 76
20260903192010 61 259 22.0 25.0 0.00 0.00 0.00 78
20260903191517 61 250 20.0 20.0 0.00 0.00 0.00 78
20260903191009 61 247 16.0 18.0 0.00 0.00 0.00 79
20260903190511 61 249 16.0 16.0 0.00 0.00 0.00 78
20260903190011 61 235 16.0 18.0 0.00 0.00 0.00 78
20260903185510 61 233 16.0 18.0 0.00 0.00 0.00 78
20260903185012 61 247 13.0 16.0 0.00 0.00 0.00 78
20260903184510 61 251 13.0 16.0 0.00 0.00 0.00 76
20260903184010 61 247 13.0 16.0 0.00 0.00 0.00 77
20260903183511 61 249 11.0 11.0 0.00 0.00 0.00 76
20260903183010 61 262 13.0 16.0 0.00 0.00 0.00 76
20260903182511 61 256 13.0 16.0 0.00 0.00 0.00 77
20260903182018 61 251 13.0 13.0 0.00 0.00 0.00 77
20260903181511 61 262 16.0 18.0 0.00 0.00 0.00 77
20260903181009 61 256 16.0 16.0 0.00 0.00 0.00 77
20260903180510 61 267 18.0 20.0 0.00 0.00 0.00 76
20260903180011 61 263 18.0 18.0 0.00 0.00 0.00 77
20260903175510 61 261 18.0 20.0 0.00 0.00 0.00 77
20260903175010 61 264 18.0 20.0 0.00 0.00 0.00 77
20260903174510 61 262 18.0 20.0 0.00 0.00 0.00 77
20260903174010 61 262 18.0 20.0 0.00 0.00 0.00 76
20260903173510 61 267 20.0 20.0 0.00 0.00 0.00 75
20260903173011 61 272 22.0 22.0 0.00 0.00 0.00 75
20260903172511 61 274 22.0 25.0 0.00 0.00 0.00 75
20260903172013 61 270 25.0 27.0 0.00 0.00 0.00 74
20260903171511 61 271 27.0 29.0 0.00 0.00 0.00 74
20260903171011 63 269 27.0 29.0 0.00 0.00 0.00 73
20260903170510 63 261 25.0 27.0 0.00 0.00 0.00 72
20260903170010 63 259 22.0 25.0 0.00 0.00 0.00 70
20260903165511 63 259 22.0 27.0 0.00 0.00 0.00 70
20260903165010 63 267 22.0 27.0 0.00 0.00 0.00 69
20260903164510 63 259 22.0 27.0 0.00 0.00 0.00 68
20260903164010 63 267 25.0 27.0 0.00 0.00 0.00 68
20260903163510 63 270 25.0 29.0 0.00 0.00 0.00 68
20260903163011 63 271 25.0 29.0 0.00 0.00 0.00 68
20260903162515 63 273 27.0 31.0 0.00 0.00 0.00 68
20260903162011 64 272 27.0 31.0 0.00 0.00 0.00 67
20260903161511 64 269 29.0 31.0 0.00 0.00 0.00 66
20260903161009 64 269 27.0 31.0 0.00 0.00 0.00 64
20260903160509 64 283 29.0 34.0 0.00 0.00 0.00 63
20260903160011 64 273 31.0 38.0 0.00 0.00 0.00 62
20260903155510 64 272 31.0 34.0 0.00 0.00 0.00 61
20260903155011 66 276 31.0 36.0 0.00 0.00 0.00 61
20260903154511 66 271 31.0 36.0 0.00 0.00 0.00 60
20260903154010 66 275 36.0 38.0 0.00 0.00 0.00 59
20260903153511 66 272 34.0 38.0 0.00 0.00 0.00 58
20260903153011 66 271 34.0 36.0 0.00 0.00 0.00 56
20260903152510 68 274 34.0 38.0 0.00 0.00 0.00 55
20260903152017 68 272 34.0 38.0 0.00 0.00 0.00 55
20260903151510 68 275 31.0 38.0 0.00 0.00 0.00 54
20260903151009 68 276 31.0 36.0 0.00 0.00 0.00 54
20260903150511 68 279 29.0 31.0 0.00 0.00 0.00 54
20260903150010 68 267 27.0 31.0 0.00 0.00 0.00 53
20260903145510 68 269 25.0 27.0 0.00 0.00 0.00 53
20260903145011 68 277 25.0 29.0 0.00 0.00 0.00 52
20260903144510 68 266 27.0 31.0 0.00 0.00 0.00 52
20260903144009 68 272 27.0 31.0 0.00 0.00 0.00 52
20260903143511 70 268 29.0 31.0 0.00 0.00 0.00 51
20260903143010 70 274 27.0 29.0 0.00 0.00 0.00 51
20260903142510 70 267 25.0 29.0 0.00 0.00 0.00 51
20260903142018 70 265 25.0 27.0 0.00 0.00 0.00 51
20260903141510 70 264 22.0 27.0 0.00 0.00 0.00 51
20260903141010 70 254 20.0 22.0 0.00 0.00 0.00 50
20260903140510 70 263 18.0 22.0 0.00 0.00 0.00 50
20260903140011 70 257 22.0 25.0 0.00 0.00 0.00 50
20260903135510 70 259 22.0 27.0 0.00 0.00 0.00 50
20260903135010 70 257 22.0 27.0 0.00 0.00 0.00 49
20260903134510 70 251 22.0 27.0 0.00 0.00 0.00 49
20260903134011 70 253 20.0 22.0 0.00 0.00 0.00 49
20260903133510 70 255 20.0 25.0 0.00 0.00 0.00 49
20260903133011 70 266 20.0 22.0 0.00 0.00 0.00 49
20260903132511 70 251 7.0 9.0 0.00 0.00 0.00 51
20260903132010 70 257 9.0 11.0 0.00 0.00 0.00 50
20260903131511 68 261 11.0 13.0 0.00 0.00 0.00 51
20260903131009 68 268 16.0 18.0 0.00 0.00 0.00 50
20260903130511 68 261 18.0 20.0 0.00 0.00 0.00 49
20260903130011 68 254 16.0 18.0 0.00 0.00 0.00 50
20260903125510 68 263 16.0 20.0 0.00 0.00 0.00 50
20260903125010 68 266 13.0 18.0 0.00 0.00 0.00 51
20260903124511 68 248 16.0 18.0 0.00 0.00 0.00 50
20260903124011 68 269 20.0 25.0 0.00 0.00 0.00 50
20260903123510 68 243 20.0 22.0 0.00 0.00 0.00 49
20260903123010 68 251 20.0 22.0 0.00 0.00 0.00 48
20260903122511 68 273 25.0 27.0 0.00 0.00 0.00 49
20260903122017 68 255 22.0 27.0 0.00 0.00 0.00 48
20260903121511 68 249 25.0 29.0 0.00 0.00 0.00 49
20260903121009 68 256 20.0 25.0 0.00 0.00 0.00 49
20260903120511 70 245 18.0 22.0 0.00 0.00 0.00 48
20260903120015 68 235 16.0 20.0 0.00 0.00 0.00 49
20260903115510 68 261 20.0 25.0 0.00 0.00 0.00 49
20260903115011 66 262 20.0 22.0 0.00 0.00 0.00 50
20260903114511 66 264 22.0 25.0 0.00 0.00 0.00 51
20260903114010 66 264 22.0 27.0 0.00 0.00 0.00 51
20260903113510 66 256 25.0 27.0 0.00 0.00 0.00 51
20260903113011 66 257 22.0 25.0 0.00 0.00 0.00 52
20260903112510 66 261 22.0 27.0 0.00 0.00 0.00 52
20260903112011 66 255 20.0 27.0 0.00 0.00 0.00 52
20260903111510 66 247 22.0 27.0 0.00 0.00 0.00 52
20260903111011 66 255 27.0 31.0 0.00 0.00 0.00 52
20260903110511 66 259 20.0 22.0 0.00 0.00 0.00 52
20260903110010 66 257 20.0 22.0 0.00 0.00 0.00 51
20260903105510 66 261 18.0 20.0 0.00 0.00 0.00 50
20260903105010 66 261 20.0 22.0 0.00 0.00 0.00 50
20260903104511 66 275 22.0 25.0 0.00 0.00 0.00 49
20260903104010 66 269 18.0 22.0 0.00 0.00 0.00 48
20260903103510 68 252 16.0 20.0 0.00 0.00 0.00 49
20260903103010 66 272 20.0 22.0 0.00 0.00 0.00 48
20260903102511 66 278 20.0 25.0 0.00 0.00 0.00 48
20260903102011 66 265 22.0 27.0 0.00 0.00 0.00 47
20260903101510 68 259 18.0 20.0 0.00 0.00 0.00 47
20260903101017 68 255 18.0 20.0 0.00 0.00 0.00 45
20260903100511 68 261 20.0 22.0 0.00 0.00 0.00 46
20260903100010 68 260 18.0 20.0 0.00 0.00 0.00 47
20260903095511 68 244 13.0 16.0 0.00 0.00 0.00 46
20260903095011 68 263 13.0 16.0 0.00 0.00 0.00 48
20260903094512 68 269 18.0 20.0 0.00 0.00 0.00 47
20260903094010 66 262 16.0 18.0 0.00 0.00 0.00 48
20260903093510 66 283 16.0 18.0 0.00 0.00 0.00 49
20260903093011 66 270 18.0 22.0 0.00 0.00 0.00 48
20260903092510 66 283 18.0 22.0 0.00 0.00 0.00 51
20260903092012 66 267 16.0 20.0 0.00 0.00 0.00 49
20260903091510 70 238 13.0 20.0 0.00 0.00 0.00 46
20260903091010 68 271 9.0 9.0 0.00 0.00 0.00 54
20260903090511 70 250 7.0 9.0 0.00 0.00 0.00 54
20260903090011 68 246 7.0 9.0 0.00 0.00 0.00 56
20260903085511 66 253 9.0 9.0 0.00 0.00 0.00 56
20260903085011 66 243 9.0 11.0 0.00 0.00 0.00 59
20260903084511 66 246 4.0 7.0 0.00 0.00 0.00 58
20260903084011 66 241 9.0 13.0 0.00 0.00 0.00 57
20260903083510 66 225 2.0 2.0 0.00 0.00 0.00 60
20260903083010 68 244 4.0 4.0 0.00 0.00 0.00 59
20260903082511 66 225 2.0 4.0 0.00 0.00 0.00 63
20260903082012 64 204 4.0 7.0 0.00 0.00 0.00 66
20260903081510 64 209 4.0 7.0 0.00 0.00 0.00 64
20260903081012 64 251 4.0 7.0 0.00 0.00 0.00 62
20260903080519 64 250 4.0 7.0 0.00 0.00 0.00 64
20260903080011 64 239 4.0 7.0 0.00 0.00 0.00 63
20260903075510 64 267 4.0 4.0 0.00 0.00 0.00 61
20260903075010 64 257 4.0 4.0 0.00 0.00 0.00 61
20260903074511 64 259 2.0 4.0 0.00 0.00 0.00 61
20260903074010 64 270 4.0 7.0 0.00 0.00 0.00 63
20260903073511 64 267 7.0 9.0 0.00 0.00 0.00 62
20260903073011 64 256 4.0 7.0 0.00 0.00 0.00 65
20260903072510 63 259 7.0 7.0 0.00 0.00 0.00 65
20260903072018 63 262 4.0 7.0 0.00 0.00 0.00 67
20260903071511 63 266 7.0 9.0 0.00 0.00 0.00 68
20260903071011 63 267 7.0 7.0 0.00 0.00 0.00 70
20260903070510 61 273 7.0 9.0 0.00 0.00 0.00 70
20260903070011 61 274 7.0 9.0 0.00 0.00 0.00 70
20260903065510 61 286 4.0 7.0 0.00 0.00 0.00 72
20260903065011 59 283 7.0 9.0 0.00 0.00 0.00 73
20260903064511 59 281 7.0 9.0 0.00 0.00 0.00 73
20260903064010 59 273 9.0 11.0 0.00 0.00 0.00 71
20260903063510 59 276 9.0 11.0 0.00 0.00 0.00 71
20260903063010 59 270 9.0 11.0 0.00 0.00 0.00 68
20260903062510 61 267 9.0 9.0 0.00 0.00 0.00 69
20260903062011 61 272 7.0 7.0 0.00 0.00 0.00 68
20260903061510 61 269 7.0 7.0 0.00 0.00 0.00 68
20260903061010 61 269 7.0 7.0 0.00 0.00 0.00 67
20260903060510 61 270 4.0 4.0 0.00 0.00 0.00 66
20260903060010 61 272 4.0 4.0 0.00 0.00 0.00 66
20260903055510 61 273 4.0 7.0 0.00 0.00 0.00 66
20260903055010 61 277 4.0 4.0 0.00 0.00 0.00 66
20260903054510 61 278 4.0 4.0 0.00 0.00 0.00 66
20260903054011 61 280 4.0 4.0 0.00 0.00 0.00 66
20260903053511 61 278 4.0 4.0 0.00 0.00 0.00 66
20260903053010 61 276 4.0 4.0 0.00 0.00 0.00 67
20260903052511 61 277 4.0 4.0 0.00 0.00 0.00 67
20260903052012 61 280 4.0 7.0 0.00 0.00 0.00 68
20260903051511 61 277 4.0 4.0 0.00 0.00 0.00 68
20260903051009 59 281 4.0 4.0 0.00 0.00 0.00 71
20260903050510 57 283 4.0 4.0 0.00 0.00 0.00 73
20260903050010 57 286 4.0 7.0 0.00 0.00 0.00 73
20260903045510 57 282 7.0 7.0 0.00 0.00 0.00 72
20260903045010 57 287 4.0 4.0 0.00 0.00 0.00 72
20260903044510 59 292 2.0 4.0 0.00 0.00 0.00 71
20260903044010 59 293 4.0 4.0 0.00 0.00 0.00 71
20260903043510 59 298 7.0 7.0 0.00 0.00 0.00 71
20260903043011 59 299 7.0 9.0 0.00 0.00 0.00 71
20260903042511 59 301 7.0 7.0 0.00 0.00 0.00 70
20260903042010 59 300 9.0 9.0 0.00 0.00 0.00 69
20260903041511 59 300 9.0 9.0 0.00 0.00 0.00 70
20260903041010 59 302 9.0 11.0 0.00 0.00 0.00 71
20260903040510 57 305 9.0 9.0 0.00 0.00 0.00 72
20260903040010 59 302 9.0 9.0 0.00 0.00 0.00 71
20260903035511 59 299 9.0 9.0 0.00 0.00 0.00 70
20260903035010 59 302 9.0 9.0 0.00 0.00 0.00 70
20260903034510 57 304 7.0 9.0 0.00 0.00 0.00 71
20260903034011 59 301 7.0 7.0 0.00 0.00 0.00 71
20260903033510 59 294 7.0 9.0 0.00 0.00 0.00 70
20260903032011 59 289 9.0 9.0 0.00 0.00 0.00 68
20260903031510 59 287 9.0 9.0 0.00 0.00 0.00 68
20260903031009 59 290 9.0 9.0 0.00 0.00 0.00 69
20260903030510 59 287 11.0 11.0 0.00 0.00 0.00 68
20260903030010 59 285 9.0 9.0 0.00 0.00 0.00 69
20260903025509 59 289 7.0 7.0 0.00 0.00 0.00 71
20260903025010 59 290 7.0 7.0 0.00 0.00 0.00 71
20260903024510 59 288 7.0 7.0 0.00 0.00 0.00 72
20260903024009 59 295 7.0 7.0 0.00 0.00 0.00 72
20260903023010 59 294 7.0 7.0 0.00 0.00 0.00 72
20260903022511 59 293 7.0 7.0 0.00 0.00 0.00 73
20260903022012 59 293 9.0 9.0 0.00 0.00 0.00 73
20260903021511 57 295 7.0 9.0 0.00 0.00 0.00 73
20260903021010 57 293 9.0 11.0 0.00 0.00 0.00 72
20260903020511 57 291 9.0 11.0 0.00 0.00 0.00 72
20260903020011 57 292 7.0 9.0 0.00 0.00 0.00 72
20260903015010 59 298 7.0 7.0 0.00 0.00 0.00 73
20260903014510 57 295 7.0 7.0 0.00 0.00 0.00 73
20260903013511 59 292 9.0 9.0 0.00 0.00 0.00 71
20260903013010 59 289 9.0 9.0 0.00 0.00 0.00 73
20260903012510 59 296 7.0 9.0 0.00 0.00 0.00 72
20260903012017 59 300 7.0 7.0 0.00 0.00 0.00 71
20260903011510 59 298 7.0 7.0 0.00 0.00 0.00 73
20260903011009 59 302 7.0 9.0 0.00 0.00 0.00 72
20260903010011 59 302 7.0 9.0 0.00 0.00 0.00 71
20260903005510 59 300 7.0 9.0 0.00 0.00 0.00 70
20260903005010 59 298 9.0 9.0 0.00 0.00 0.00 72
20260903004511 59 295 9.0 9.0 0.00 0.00 0.00 70
20260903004010 59 296 7.0 9.0 0.00 0.00 0.00 70
20260903003510 59 297 7.0 7.0 0.00 0.00 0.00 70
20260903003004 59 300 7.0 7.0 0.00 0.00 0.00 68
20260903002511 59 298 7.0 7.0 0.00 0.00 0.00 69
20260903002013 59 292 7.0 7.0 0.00 0.00 0.00 69
20260903001511 59 294 4.0 7.0 0.00 0.00 0.00 68
20260903001010 59 298 7.0 7.0 0.00 0.00 0.00 68
20260903000510 59 298 9.0 9.0 0.00 0.00 0.00 68
20260903000011 59 296 9.0 9.0 0.00 0.00 0.00 68
20260902235510 59 295 9.0 9.0 0.00 0.00 0.00 68
20260902235010 59 293 9.0 9.0 0.00 0.00 0.00 68
20260902234510 61 298 7.0 7.0 0.00 0.00 0.00 67
20260902234009 61 300 7.0 7.0 0.00 0.00 0.00 67
20260902233510 61 300 7.0 9.0 0.00 0.00 0.00 67
20260902233011 59 303 7.0 9.0 0.00 0.00 0.00 68
20260902232510 61 304 9.0 9.0 0.00 0.00 0.00 67
20260902232011 61 303 9.0 9.0 0.00 0.00 0.00 67
20260902231510 61 293 7.0 9.0 0.00 0.00 0.00 67
20260902231010 61 305 7.0 9.0 0.00 0.00 0.00 66
20260902230010 61 311 7.0 9.0 0.00 0.00 0.00 65
20260902225511 61 315 9.0 9.0 0.00 0.00 0.00 64
20260902225010 61 318 7.0 9.0 0.00 0.00 0.00 66
20260902224511 61 314 7.0 9.0 0.00 0.00 0.00 65
20260902224010 61 312 7.0 9.0 0.00 0.00 0.00 65
20260902223511 61 309 7.0 9.0 0.00 0.00 0.00 65
20260902223010 61 314 9.0 11.0 0.00 0.00 0.00 65
20260902222510 61 313 9.0 11.0 0.00 0.00 0.00 65
20260902222010 61 311 9.0 11.0 0.00 0.00 0.00 65
20260902221510 61 309 9.0 11.0 0.00 0.00 0.00 64
20260902221010 61 306 9.0 11.0 0.00 0.00 0.00 64
20260902220511 61 305 9.0 11.0 0.00 0.00 0.00 65
20260902220011 63 306 9.0 9.0 0.00 0.00 0.00 64
20260902215511 63 300 9.0 9.0 0.00 0.00 0.00 64
20260902215011 63 296 9.0 9.0 0.00 0.00 0.00 64
20260902214509 63 299 7.0 9.0 0.00 0.00 0.00 63
20260902213509 63 304 9.0 9.0 0.00 0.00 0.00 62
20260902213011 63 306 7.0 7.0 0.00 0.00 0.00 63
20260902212510 63 307 7.0 7.0 0.00 0.00 0.00 63
20260902212014 63 304 7.0 7.0 0.00 0.00 0.00 63